Total_Precipitation_Accumulation
0.04 0.03 0.05 0.10 0.18 0.26 0.34 0.36 0.38 0.55 0.61 0.51 0.51 0.54 0.56 0.66 0.96 1.65 1.10 0.68 0.46 0.35 0.38 0.41 0.45 0.44 0.41 0.37 0.38 0.33 0.31 0.36 0.40 0.39 0.45 0.49 0.43 0.42 0.43 0.50 0.63 0.82 0.93 0.91 0.92 0.96 0.98 1.00 0.86
0.05 0.05 0.07 0.10 0.20 0.32 0.40 0.34 0.43 0.55 0.57 0.59 0.57 0.66 0.65 0.62 0.58 0.60 0.70 0.57 0.37 0.32 0.39 0.40 0.49 0.50 0.45 0.39 0.39 0.37 0.36 0.38 0.45 0.51 0.53 0.58 0.52 0.49 0.53 0.59 0.66 0.86 0.99 1.06 1.02 1.02 1.04 1.01 0.87
0.05 0.07 0.08 0.09 0.21 0.37 0.43 0.44 0.50 0.55 0.59 0.68 0.74 0.81 0.78 0.79 0.65 0.74 0.79 0.56 0.40 0.38 0.40 0.42 0.45 0.49 0.53 0.52 0.50 0.50 0.47 0.49 0.53 0.61 0.66 0.73 0.69 0.62 0.65 0.69 0.73 0.86 0.94 1.09 1.17 1.14 1.13 1.06 0.97
0.06 0.06 0.07 0.12 0.25 0.27 0.34 0.48 0.53 0.57 0.67 0.67 0.62 0.81 0.91 0.88 0.75 0.78 0.81 0.64 0.51 0.53 0.53 0.45 0.52 0.54 0.67 0.69 0.65 0.63 0.59 0.59 0.66 0.71 0.72 0.78 0.77 0.75 0.82 0.85 0.90 1.00 1.05 1.12 1.22 1.33 1.32 1.23 1.33
0.04 0.06 0.10 0.20 0.26 0.27 0.31 0.49 0.58 0.62 0.66 0.66 0.75 0.95 1.08 1.19 1.01 0.92 0.88 0.77 0.75 0.82 0.78 0.62 0.62 0.62 0.73 0.71 0.72 0.70 0.68 0.68 0.76 0.79 0.76 0.79 0.77 0.78 0.91 1.06 1.09 1.16 1.22 1.21 1.21 1.28 1.33 1.32 1.54
0.05 0.06 0.15 0.25 0.31 0.33 0.34 0.42 0.54 0.68 0.78 0.72 0.88 1.11 1.45 1.58 1.48 1.28 0.99 0.87 0.84 0.98 0.93 0.70 0.67 0.68 0.81 0.83 0.78 0.76 0.76 0.79 0.89 0.92 0.86 0.82 0.81 0.86 0.98 1.11 1.20 1.26 1.25 1.19 1.25 1.24 1.24 1.48 1.69
0.04 0.06 0.13 0.23 0.31 0.37 0.37 0.47 0.65 0.80 0.95 0.88 0.96 1.23 1.63 1.71 1.50 1.31 1.15 1.03 0.94 1.03 1.07 0.91 0.90 0.86 0.88 0.92 0.91 0.96 0.90 0.94 1.02 1.01 1.05 0.96 0.92 1.04 1.16 1.19 1.25 1.26 1.26 1.18 1.16 1.23 1.15 1.26 1.52
0.03 0.08 0.15 0.25 0.30 0.31 0.36 0.51 0.74 0.84 0.96 0.99 1.16 1.27 1.81 1.86 1.61 1.45 1.42 1.44 1.51 1.73 1.76 1.50 1.37 1.25 1.10 1.04 0.98 0.97 0.98 1.08 1.20 1.16 1.15 1.16 1.15 1.17 1.30 1.27 1.29 1.22 1.16 1.14 1.12 1.24 1.25 1.19 1.19
0.02 0.07 0.15 0.22 0.28 0.31 0.42 0.68 0.73 0.80 0.98 1.00 1.04 1.08 1.49 1.62 1.65 1.84 1.91 2.11 2.28 2.49 2.55 2.13 1.68 1.48 1.48 1.37 1.15 1.17 1.11 1.13 1.22 1.24 1.24 1.32 1.56 1.72 1.75 1.54 1.62 1.49 1.35 1.28 1.27 1.25 1.20 1.16 1.14
0.03 0.07 0.13 0.19 0.28 0.32 0.46 0.74 0.81 0.81 0.92 0.97 0.98 1.04 1.26 1.59 1.83 2.06 2.40 2.96 2.89 2.77 2.78 2.46 1.94 2.02 2.19 1.82 1.68 1.58 1.39 1.35 1.31 1.45 1.51 1.65 2.11 2.24 1.95 2.01 1.97 1.91 1.77 1.62 1.57 1.52 1.38 1.24 1.16
0.04 0.08 0.12 0.19 0.36 0.39 0.50 0.74 0.89 1.00 1.06 1.08 1.16 1.34 1.53 1.83 1.90 2.07 2.50 3.05 3.19 2.87 2.59 2.25 2.17 2.20 2.40 2.33 2.17 2.07 1.99 2.02 2.00 2.06 2.13 2.31 2.40 2.26 2.11 2.39 2.27 2.22 2.13 2.03 2.08 1.90 1.61 1.51 1.50
0.05 0.07 0.12 0.19 0.34 0.44 0.57 0.81 0.96 1.15 1.27 1.27 1.28 1.38 1.75 1.90 1.91 2.25 2.84 2.79 2.78 2.76 2.62 2.56 2.59 2.44 2.60 2.91 2.80 2.66 2.62 2.53 2.40 2.40 2.31 2.66 2.84 2.73 2.71 2.80 2.73 2.86 2.85 2.80 2.49 2.27 2.01 1.85 1.65
0.07 0.09 0.12 0.19 0.39 0.47 0.53 0.79 0.79 0.94 1.09 1.14 1.17 1.27 1.61 1.91 2.16 2.61 2.95 3.00 2.96 3.01 2.83 2.79 2.90 2.86 2.94 3.31 3.38 3.13 3.06 2.86 2.66 2.62 2.67 2.84 2.92 2.95 3.06 3.03 3.18 3.14 3.06 2.90 2.67 2.32 2.28 2.08 1.89
0.09 0.11 0.16 0.24 0.40 0.49 0.48 0.59 0.66 0.83 0.94 1.07 1.32 1.37 1.58 1.90 2.36 2.72 2.94 3.11 3.24 3.26 3.02 2.92 3.01 2.96 2.98 3.16 3.32 3.32 3.25 3.32 3.21 3.00 2.94 2.97 3.05 3.17 3.19 3.22 3.18 3.02 2.88 2.91 2.84 2.64 2.58 2.41 2.23
0.11 0.15 0.23 0.30 0.38 0.41 0.41 0.54 0.68 0.75 0.87 0.98 1.31 1.61 1.77 2.20 2.47 2.63 2.78 3.19 3.40 3.49 3.42 3.30 3.32 3.43 3.31 3.28 3.34 3.27 3.30 3.57 3.56 3.50 3.43 3.20 3.12 3.19 3.24 3.32 3.24 3.10 3.02 3.05 2.97 2.90 2.82 2.66 2.51
0.20 0.22 0.27 0.33 0.38 0.38 0.41 0.70 0.74 0.83 0.91 1.01 1.06 1.46 1.89 2.22 2.15 2.16 2.46 3.07 3.76 3.98 3.88 3.50 3.22 3.47 3.53 3.55 3.57 3.61 3.62 3.78 3.73 3.57 3.65 3.44 3.43 3.35 3.33 3.20 3.04 3.01 3.00 3.16 3.22 3.12 3.12 2.96 2.84
0.26 0.26 0.28 0.37 0.40 0.39 0.47 0.84 0.95 0.99 1.06 1.18 1.21 1.47 1.81 1.90 1.86 2.01 2.46 3.13 3.99 4.55 4.31 3.72 3.40 3.50 3.68 3.66 3.79 4.01 4.14 4.09 3.93 3.79 3.85 3.69 3.73 3.64 3.53 3.56 3.48 3.34 3.38 3.36 3.12 3.23 3.32 3.32 3.25
0.24 0.25 0.33 0.40 0.41 0.42 0.53 0.79 0.95 1.13 1.17 1.39 1.50 1.57 1.69 1.80 1.80 1.97 2.46 3.19 3.98 4.66 4.55 4.08 3.80 3.99 4.00 3.88 3.97 4.10 4.20 4.20 4.28 4.30 4.24 4.09 4.02 4.10 4.22 4.22 4.11 3.90 3.76 3.67 3.73 3.73 3.49 3.30 3.29
0.21 0.26 0.31 0.39 0.39 0.45 0.53 0.75 0.87 1.05 1.13 1.29 1.44 1.47 1.43 1.52 1.73 2.09 2.56 3.25 3.72 3.88 3.96 4.11 4.11 4.17 4.19 4.16 4.17 4.36 4.51 4.53 4.52 4.66 4.68 4.51 4.45 4.60 4.91 4.93 4.77 4.46 4.14 3.91 3.86 3.85 3.65 3.37 3.24
0.23 0.28 0.33 0.40 0.36 0.39 0.55 0.75 0.92 1.08 1.16 1.24 1.30 1.33 1.33 1.36 1.63 2.09 2.54 2.99 3.29 3.63 3.82 4.03 4.03 4.22 4.49 4.87 5.38 5.65 5.74 5.61 5.42 5.32 5.24 5.11 5.00 5.08 5.20 5.26 4.92 4.56 4.37 4.10 3.84 3.75 3.57 3.32 3.28
0.24 0.26 0.34 0.43 0.46 0.46 0.62 0.97 1.07 1.18 1.33 1.45 1.46 1.52 1.59 1.46 1.62 1.96 2.19 2.57 2.85 3.23 3.57 3.84 4.16 4.58 5.09 5.74 6.53 6.83 6.57 6.15 5.94 5.59 5.50 5.28 5.07 5.04 5.13 4.85 4.61 4.41 4.22 4.01 3.78 3.72 3.65 3.34 3.22
0.20 0.18 0.24 0.32 0.44 0.54 0.54 1.06 1.35 1.49 1.66 1.77 1.59 1.53 1.58 1.58 1.58 1.75 2.01 2.30 2.49 2.87 3.35 3.80 4.36 4.98 5.63 6.24 6.69 6.88 6.76 6.48 6.17 5.73 5.32 4.93 4.62 4.43 4.31 4.19 3.97 3.87 3.73 3.56 3.40 3.40 3.41 3.29 3.04
0.14 0.14 0.18 0.23 0.32 0.49 0.52 0.86 1.43 1.70 1.82 1.86 1.69 1.61 1.54 1.51 1.44 1.59 1.81 2.06 2.37 2.80 3.29 3.78 4.28 5.00 5.50 6.04 6.46 6.67 6.67 6.55 6.14 5.45 4.78 4.36 4.03 3.78 3.51 3.30 3.20 3.19 3.13 2.92 2.74 2.72 2.74 2.73 2.66
0.13 0.15 0.20 0.27 0.35 0.57 0.52 0.80 1.51 1.93 2.03 1.91 1.82 1.75 1.60 1.56 1.61 1.62 1.70 1.88 2.32 2.73 3.25 3.62 3.96 4.67 5.37 5.87 6.23 6.51 6.47 6.23 5.60 4.88 4.30 3.94 3.62 3.37 3.11 2.94 2.77 2.69 2.60 2.43 2.29 2.25 2.27 2.31 2.32
0.14 0.25 0.49 0.63 0.71 0.70 0.53 0.85 1.55 1.73 1.73 1.72 1.59 1.53 1.58 1.56 1.53 1.54 1.75 1.89 2.36 2.75 3.07 3.35 3.61 4.02 4.55 5.02 5.34 5.53 5.55 5.33 4.89 4.45 3.97 3.60 3.33 3.06 2.75 2.43 2.27 2.18 2.16 2.10 2.03 1.99 1.98 2.02 2.04
0.13 0.24 0.59 0.83 0.88 0.82 0.82 1.41 1.92 1.68 1.61 1.65 1.57 1.39 1.40 1.49 1.48 1.48 1.72 1.94 2.10 2.32 2.58 2.88 3.10 3.37 3.65 3.91 4.17 4.15 4.12 4.09 3.88 3.52 3.10 2.81 2.52 2.34 2.18 1.97 1.86 1.84 1.86 1.84 1.82 1.75 1.67 1.71 1.83
0.13 0.20 0.26 0.46 0.54 0.81 1.19 1.60 2.00 1.87 1.81 1.61 1.50 1.41 1.41 1.40 1.42 1.51 1.70 1.84 1.91 2.04 2.23 2.41 2.50 2.70 2.78 2.76 2.77 2.85 2.83 2.83 2.77 2.63 2.39 2.07 1.81 1.67 1.62 1.59 1.56 1.45 1.46 1.53 1.55 1.52 1.50 1.56 1.58
0.13 0.18 0.27 0.57 0.82 1.07 1.31 1.92 2.40 2.35 2.13 1.83 1.58 1.43 1.30 1.31 1.37 1.48 1.62 1.78 1.88 1.89 2.06 2.15 2.09 2.12 2.18 2.21 2.14 2.06 2.12 2.17 2.18 2.10 1.94 1.76 1.56 1.41 1.33 1.31 1.27 1.18 1.15 1.22 1.31 1.34 1.40 1.50 1.47
0.18 0.22 0.31 0.54 0.68 1.15 1.58 2.23 2.27 2.36 2.22 2.05 1.93 1.59 1.39 1.39 1.42 1.55 1.56 1.59 1.60 1.63 1.67 1.74 1.75 1.76 1.77 1.76 1.79 1.77 1.73 1.71 1.73 1.77 1.72 1.58 1.44 1.32 1.24 1.15 1.14 1.14 1.05 1.03 1.11 1.13 1.19 1.32 1.36
0.21 0.26 0.35 0.66 0.79 0.93 1.40 2.21 1.90 2.23 2.34 2.20 2.04 1.70 1.57 1.55 1.58 1.62 1.57 1.46 1.47 1.58 1.61 1.59 1.57 1.53 1.55 1.58 1.64 1.69 1.55 1.47 1.49 1.52 1.50 1.38 1.33 1.27 1.20 1.14 1.11 1.06 0.99 0.96 0.97 0.96 1.00 1.10 1.14